Weather History for Gainesville, GA

Change the Weather History Date:

Tuesday, January 6, 2015

  Actual Average Record
Temperature  
Mean Temperature 39 °F 41 °F  
Max Temperature 50 °F 50 °F 70 °F (1950)
Min Temperature 28 °F 33 °F 9 °F (1969)
Degree Days  
Heating Degree Days 26 24  
Month to date heating degree days 122 144  
Since 1 July heating degree days 1296 1340  
Moisture  
Dew Point 24 °F    
Average Humidity 60    
Maximum Humidity 85    
Minimum Humidity 34    
Precipitation  
Precipitation 0.00 in 0.15 in 3.91 in (2009)
Month to date precipitation 2.53 0.77  
Year to date precipitation 2.53 0.77  
Sea Level Pressure  
Sea Level Pressure 30.28 in    
Wind  
Wind Speed 10 mph (WNW)    
Max Wind Speed 23 mph    
Max Gust Speed 32 mph    
Visibility 10 miles    
Events      
T = Trace of Precipitation, MM = Missing Value Source: NWS Daily Summary

Daily Weather History Graph

Daily Weather History Graph

Search for Another Location

Airport:

Trip Planner

Search our weather history database for the weather conditions in past years. The results will help you decide how hot, cold, wet, or windy it might be!

Date:

Astronomy

Jan. 06, 2015 Rise Set
Actual Time 7:42 AM EST 5:40 PM EST
Civil Twilight 7:14 AM EST 6:07 PM EST
Nautical Twilight 6:43 AM EST 6:39 PM EST
Astronomical Twilight 6:12 AM EST 7:09 PM EST
Moon 7:22 PM EST (1/6) 8:23 AM EST (1/6)
Length of Visible Light 10h 53m
Length of Day
9h 58m
Full, 98% of the Moon is Illuminated
Jan 6
Full
Jan 13
Last Quarter
Jan 20
New
Jan 26
First Quarter
Feb 3
Full

Hourly Weather History & Observations

Time (EST) Temp. Windchill Dew Point Humidity Pressure Visibility Wind Dir Wind Speed Gust Speed Precip Events Conditions
12:53 AM 32.0 °F - 23.0 °F 69% 30.38 in 10.0 mi Calm Calm - N/A   Clear
1:53 AM 32.0 °F 28.7 °F 25.0 °F 75% 30.38 in 10.0 mi NNW 3.5 mph - N/A   Clear
2:53 AM 30.9 °F - 24.1 °F 76% 30.38 in 10.0 mi Calm Calm - N/A   Clear
3:53 AM 28.9 °F - 23.0 °F 78% 30.36 in 10.0 mi Calm Calm - N/A   Clear
4:53 AM 28.9 °F - 24.1 °F 82% 30.37 in 10.0 mi Calm Calm - N/A   Clear
5:53 AM 28.0 °F 24.2 °F 25.0 °F 88% 30.36 in 10.0 mi NW 3.5 mph - N/A   Clear
6:53 AM 30.0 °F 25.2 °F 25.0 °F 82% 30.37 in 10.0 mi NW 4.6 mph - N/A   Clear
7:53 AM 30.0 °F 26.5 °F 24.1 °F 79% 30.36 in 10.0 mi NW 3.5 mph - N/A   Clear
8:53 AM 36.0 °F 29.6 °F 23.0 °F 59% 30.35 in 10.0 mi West 8.1 mph - N/A   Clear
9:53 AM 39.9 °F 30.5 °F 24.1 °F 53% 30.33 in 10.0 mi West 19.6 mph 26.5 mph N/A   Clear
10:53 AM 43.0 °F 34.2 °F 24.1 °F 47% 30.30 in 10.0 mi West 20.7 mph 32.2 mph N/A   Clear
11:53 AM 45.0 °F 37.4 °F 21.0 °F 39% 30.27 in 10.0 mi West 18.4 mph - N/A   Clear
12:53 PM 48.0 °F - 21.9 °F 36% 30.25 in 10.0 mi West 15.0 mph 20.7 mph N/A   Clear
1:53 PM 48.0 °F - 24.1 °F 39% 30.22 in 10.0 mi WNW 19.6 mph 27.6 mph N/A   Clear
2:53 PM 50.0 °F - 25.0 °F 38% 30.21 in 10.0 mi West 18.4 mph 27.6 mph N/A   Clear
3:53 PM 50.0 °F - 26.1 °F 39% 30.20 in 10.0 mi West 11.5 mph 19.6 mph N/A   Clear
4:53 PM 48.0 °F - 26.1 °F 42% 30.21 in 10.0 mi West 12.7 mph - N/A   Clear
5:53 PM 46.0 °F 41.0 °F 26.1 °F 46% 30.21 in 10.0 mi West 10.4 mph - N/A   Clear
6:53 PM 44.1 °F 37.4 °F 26.1 °F 49% 30.23 in 10.0 mi WNW 13.8 mph - N/A   Clear
7:53 PM 42.1 °F 37.1 °F 26.1 °F 53% 30.23 in 10.0 mi WNW 8.1 mph - N/A   Clear
8:53 PM 41.0 °F 35.2 °F 25.0 °F 53% 30.22 in 10.0 mi NW 9.2 mph - N/A   Clear
9:53 PM 41.0 °F 34.3 °F 24.1 °F 51% 30.22 in 10.0 mi WNW 11.5 mph - N/A   Clear
10:53 PM 39.0 °F 32.8 °F 24.1 °F 55% 30.21 in 10.0 mi WNW 9.2 mph - N/A   Clear
11:53 PM 39.0 °F 31.0 °F 24.1 °F 55% 30.21 in 10.0 mi WNW 13.8 mph 19.6 mph N/A   Clear